Lid_Strength_Index
-1 -1 -1 -1 -1 -0 -0 -0 -0 -0 -1 -1 -1 -1 -1 -1 -1 0 3 1 -0 -2 -1 0 1 2 2 4 3 5 10 12 10 9 8 6 6 6 5 6 5 4 4 3 2
-1 -1 -1 -1 -1 -1 -0 -0 -0 -0 -1 -1 -1 -1 -1 -1 1 3 -1 -2 -2 -2 1 2 3 3 4 5 5 6 10 10 7 7 7 6 6 6 7 6 6 5 3 2 2
-1 -1 -1 -1 -1 -1 -1 -0 -0 -1 -1 -1 -1 -1 -1 -1 4 3 -2 -2 -2 -2 0 1 2 3 5 5 6 7 10 7 6 6 6 7 7 6 7 7 5 6 4 3 3
-1 -1 -1 -1 -1 -1 -1 -1 -1 -1 -1 -1 -1 -1 -1 0 9 1 -2 -2 -2 -1 1 2 3 5 6 8 5 9 7 6 6 6 6 7 5 6 7 6 4 5 4 3 4
-1 -1 -1 -1 -1 -1 -1 -1 -1 -1 -1 -1 -2 -2 0 4 5 -1 -1 -1 -1 0 2 4 5 5 7 6 6 8 7 6 5 6 6 6 7 6 6 5 4 5 5 3 4
-1 -1 -1 -1 -1 -1 -1 -1 -1 -1 -1 -1 -2 -2 3 8 1 -1 -1 -0 0 1 2 3 4 4 6 6 7 6 6 6 6 6 6 7 7 6 5 4 6 6 5 4 3
-1 -1 -1 -1 -1 -1 -1 -1 -2 -2 -2 -2 -2 -0 4 6 0 -0 -0 0 0 1 3 2 2 4 5 7 5 6 8 7 6 6 7 6 9 8 5 4 5 6 6 4 3
-1 -1 -1 -1 -1 -1 -1 -1 -1 -2 -2 -2 -2 1 6 2 0 0 -0 1 0 0 1 1 1 4 5 4 6 8 8 11 7 6 6 7 11 7 5 5 5 5 5 5 4
-1 -1 -1 -1 -1 -1 -1 -1 -1 -1 -2 -2 1 2 6 1 3 1 -0 2 2 1 1 1 3 6 5 9 10 9 12 11 9 6 7 8 10 7 5 5 6 5 5 5 4
-1 -1 -1 -1 -1 -1 -1 -1 -1 -1 -0 -0 1 5 4 6 3 2 -0 1 3 4 5 5 6 8 9 10 15 12 12 10 10 8 8 9 10 7 5 6 6 5 5 5 5
-1 -1 -1 -1 -1 -1 -0 1 4 6 3 6 6 6 6 4 2 3 1 2 3 6 10 8 11 13 10 9 8 9 10 11 9 7 9 9 9 7 6 6 6 5 5 5 6
-1 -1 -1 -1 -1 -1 0 5 4 3 8 4 4 4 4 2 6 3 1 5 6 10 8 10 13 9 8 8 9 10 11 11 9 7 9 9 9 7 6 7 6 6 5 5 4
-0 -1 -1 -1 -1 0 2 3 1 2 8 7 5 5 4 3 6 5 3 5 7 9 10 12 10 7 9 10 11 11 12 11 11 9 8 10 11 9 7 6 6 5 5 4 4
-0 -1 -1 -1 2 1 3 1 1 2 12 11 8 6 4 4 7 3 2 5 7 10 9 10 7 9 10 12 11 14 9 10 11 13 15 9 16 10 8 7 8 6 5 5 4
-1 -1 -1 -1 1 4 2 1 2 5 20 10 8 3 4 6 6 6 2 5 8 8 9 11 10 10 12 10 9 12 9 10 11 13 13 12 16 12 8 9 8 7 5 5 4
-1 -1 -1 1 1 0 -0 1 4 15 19 13 8 9 9 7 7 6 6 4 4 8 8 9 7 8 9 8 8 8 11 11 12 14 19 14 14 13 10 9 7 6 5 5 5
-1 -1 -0 -0 3 -1 -0 4 14 18 11 13 12 9 9 10 9 8 9 10 11 14 14 10 10 8 8 11 9 10 13 19 20 20 20 11 13 12 8 7 7 6 5 5 5
-1 -1 -0 0 -1 -1 3 10 18 14 13 9 10 10 12 10 10 9 10 12 8 9 12 14 16 11 8 10 12 12 13 17 21 20 17 12 17 12 7 6 5 5 5 4 5
-1 1 1 0 -1 0 7 15 15 13 10 11 10 13 13 11 11 10 10 11 9 8 12 14 13 8 8 8 9 12 15 10 15 15 18 14 12 9 7 7 7 6 5 5 4
2 3 3 -0 -1 3 10 13 12 8 9 9 14 12 15 13 12 11 11 9 9 7 6 9 14 8 8 7 8 10 9 15 15 21 21 15 14 12 9 8 7 7 6 5 4
3 7 2 -0 1 7 13 12 11 7 7 10 11 12 11 13 11 12 12 9 7 8 7 8 10 12 8 10 12 11 13 13 14 15 18 19 14 8 8 7 7 7 6 5 5
4 10 2 1 9 9 12 11 9 9 7 8 8 9 10 11 11 12 11 9 6 7 11 8 10 14 12 8 7 8 11 11 17 17 16 16 16 7 7 6 6 6 5 5 4
7 7 2 3 12 12 10 10 9 9 9 8 9 8 8 10 13 11 9 7 6 7 9 8 12 16 14 10 9 10 9 10 10 12 16 18 15 7 7 7 6 6 6 5 5
7 11 8 6 7 10 11 11 11 7 8 8 8 8 9 10 9 11 10 8 6 7 6 7 11 13 15 12 10 11 10 10 11 16 16 15 13 10 8 7 6 6 6 6 6
7 10 8 12 10 10 9 10 11 12 9 8 10 9 10 12 11 11 9 9 8 7 7 8 14 11 11 10 10 11 11 10 11 11 15 13 12 9 8 7 7 6 6 6 6
8 9 7 9 8 10 9 11 11 10 9 10 10 9 9 11 10 11 9 9 10 8 9 8 13 11 14 11 11 13 11 10 10 11 11 11 12 7 7 6 7 7 7 6 6
3 3 6 8 9 11 11 11 10 8 8 8 8 9 10 9 7 7 6 7 7 9 10 10 12 14 16 11 12 15 12 11 10 10 10 12 9 7 8 7 7 7 7 6 6